Flag for Canada Weather past 2 weeks in Denare Beach, Saskatchewan, Canada

Now
-11 °F

Clear.


Feels Like: -30 °F
Forecast: -15 / -1 °F
Wind: 10 mph from Northwest

Location: The Pas

Current Time: Jan 29, 2015 at 5:10:48 AM

Latest Report: Jan 29, 2015 at 4:00 AM


Visibility: 15 mi

Pressure: 30.58 "Hg

Humidity: 76%

Dew point: -17 °F

Location of Denare BeachLocation

Historic Weather in Denare Beach — Graph

°F

Denare Beach temperature yesterday

Maximum temperature yesterday: 7 °F (at 12:00 AM)
Minimum temperature yesterday: -4 °F (at 11:00 PM)
Average temperature yesterday: 2 °F

Past Weeks' High & Low Weather Summary

 TemperatureHumidityPressure
High39 °F (Jan 22, 4:00 PM)100% (Jan 17, 11:00 AM)30.58 "Hg (Jan 17, 11:00 AM)
Low-11 °F (Jan 16, 1:00 AM)65% (Jan 15, 4:00 PM)29.39 "Hg (Jan 17, 5:00 AM)
Average11 °F84%29.93 "Hg
* Reported Jan 14 4:00 AM — Jan 29 4:00 AM, Denare Beach, Weather by CustomWeather, © 2014

Note: Actual official high and low records may vary slightly from our data, if they occured in-between our weather recording intervals... More about our weather records

Advertising

Denare Beach weather history for previous 24 hours

 ConditionsComfort  
Time TempWeatherWind HumidityBarometerVisibility
4:00 AM
Jan 29
-11 °FClear.10 mph76%30.58 "Hg15 mi
3:00 AM-8 °FClear.13 mph77%30.55 "Hg15 mi
2:00 AM-8 °FLight snow. Overcast.12 mph77%30.52 "Hg15 mi
1:00 AM-6 °FLight snow. Overcast.13 mph77%30.50 "Hg15 mi
12:00 AM-6 °FClear.12 mph84%30.47 "Hg15 mi
11:00 PM
Jan 28
-4 °FClear.13 mph77%30.45 "Hg15 mi
10:00 PM-2 °FLight snow. Passing clouds.9 mph77%30.42 "Hg15 mi
9:00 PM1 °FLight snow. Overcast.9 mph78%30.38 "Hg15 mi
8:00 PM1 °FLight snow. Passing clouds.10 mph78%30.37 "Hg9 mi
7:00 PM1 °FLight snow. Overcast.9 mph78%30.34 "Hg15 mi
6:00 PM1 °FLight snow. Overcast.8 mph85%30.31 "Hg12 mi
5:00 PM1 °FLight snow. Overcast.8 mph78%30.28 "Hg2 mi
4:54 PM1 °FLight snow. Overcast.7 mph78%30.27 "Hg3 mi
4:00 PM1 °FLight snow. Overcast.8 mph78%30.26 "Hg14 mi
3:00 PM0 °FLight snow. Overcast.5 mph84%30.23 "Hg13 mi
2:48 PM0 °FLight snow. Overcast.3 mph78%30.23 "Hg9 mi
2:00 PM0 °FLight snow. Overcast.6 mph78%30.23 "Hg1 mi
1:00 PM0 °FLight snow. Low clouds.6 mph78%30.23 "Hg1 mi
12:00 PM0 °FLight snow. Overcast.5 mph78%30.25 "Hg1 mi
11:00 AM0 °FLight snow. Overcast.8 mph71%30.25 "Hg13 mi
10:00 AM0 °FLight snow. Overcast.6 mph78%30.22 "Hg15 mi
9:00 AM1 °FLight snow. Overcast.5 mph78%30.19 "Hg15 mi
8:00 AM1 °FMostly cloudy.7 mph78%30.19 "Hg15 mi
7:00 AM1 °FOvercast.9 mph85%30.20 "Hg12 mi
6:00 AM3 °FLight snow. Overcast.5 mph85%30.21 "Hg8 mi
5:00 AM5 °FLight snow. Overcast.6 mph78%30.18 "Hg8 mi
Weather by CustomWeather, © 2014

See weather overviewHow to use our weather pages